When you browse on this site, cookies collect data to enhance your experience and personalize the content and advertising you see.
Visit our Privacy Policy to learn more. By continuing to use the site, you agree to this use of cookies and data.
  • In Hungary
  • List of Countries
  • For 7 days
  • Water Temperature
  • Weather Map
  • News
  • Weather Widgets
  • user-avatar
    Login

    Hourly Weather Pokryshkino

    Today, 23 September, Monday

    Time Temperature Precipitation Wind Pressure Humidity
    00:00 0°C° 0 mm 5 mps 738 mmHg 92%
    01:00 0°C° 0 mm 5 mps 738 mmHg 92%
    02:00 +1°C° 0 mm 5 mps 738 mmHg 90%
    03:00 +1°C° 0 mm 5 mps 738 mmHg 90%
    04:00 +1°C° 0 mm 6 mps 738 mmHg 90%
    05:00 +1°C° 0 mm 6 mps 738 mmHg 90%
    06:00 +1°C° 0.2 mm 6 mps 739 mmHg 89%
    07:00 -1°C° 0.2 mm 6 mps 739 mmHg 87%
    08:00 -1°C° 0 mm 6 mps 739 mmHg 85%
    09:00 +1°C° 0 mm 6 mps 740 mmHg 81%
    10:00 +2°C° 0 mm 6 mps 740 mmHg 77%
    11:00 +2°C° 0 mm 6 mps 740 mmHg 73%
    12:00 +3°C° 0 mm 6 mps 740 mmHg 70%
    13:00 +3°C° 0 mm 6 mps 741 mmHg 68%
    14:00 +5°C° 0 mm 5 mps 741 mmHg 66%
    15:00 +3°C° 0.1 mm 5 mps 741 mmHg 69%
    16:00 +4°C° 0.1 mm 4 mps 741 mmHg 73%
    17:00 +3°C° 0.1 mm 3 mps 742 mmHg 76%
    18:00 +2°C° 0 mm 3 mps 742 mmHg 79%
    19:00 +1°C° 0 mm 3 mps 742 mmHg 82%
    20:00 0°C° 0 mm 3 mps 742 mmHg 85%
    21:00 0°C° 0 mm 3 mps 742 mmHg 86%
    22:00 0°C° 0 mm 3 mps 742 mmHg 88%
    23:00 -1°C° 0 mm 3 mps 742 mmHg 89%

    Tomorrow, 24 September, Tuesday

    Time Temperature Precipitation Wind Pressure Humidity
    00:00 -1°C° 0 mm 3 mps 742 mmHg 90%
    01:00 -1°C° 0 mm 3 mps 743 mmHg 91%
    02:00 -1°C° 0 mm 3 mps 743 mmHg 92%
    03:00 -1°C° 0 mm 3 mps 743 mmHg 93%
    04:00 -2°C° 0 mm 3 mps 742 mmHg 94%
    05:00 -2°C° 0 mm 3 mps 742 mmHg 95%
    06:00 -1°C° 0 mm 3 mps 742 mmHg 89%
    07:00 0°C° 0 mm 3 mps 743 mmHg 83%
    08:00 +1°C° 0 mm 3 mps 743 mmHg 77%
    09:00 +2°C° 0 mm 3 mps 743 mmHg 72%
    10:00 +3°C° 0 mm 3 mps 743 mmHg 67%
    11:00 +4°C° 0 mm 3 mps 743 mmHg 61%
    12:00 +4°C° 0 mm 3 mps 743 mmHg 61%
    13:00 +4°C° 0 mm 3 mps 743 mmHg 61%
    14:00 +4°C° 0 mm 3 mps 744 mmHg 61%
    15:00 +3°C° 0 mm 3 mps 744 mmHg 64%
    16:00 +4°C° 0 mm 2 mps 743 mmHg 67%
    17:00 +3°C° 0 mm 2 mps 743 mmHg 70%
    18:00 +3°C° 0 mm 2 mps 743 mmHg 74%
    19:00 +2°C° 0 mm 2 mps 744 mmHg 77%
    20:00 +2°C° 0 mm 2 mps 744 mmHg 81%
    21:00 +1°C° 0 mm 2 mps 744 mmHg 83%
    22:00 +1°C° 0 mm 2 mps 744 mmHg 86%
    23:00 -1°C° 0 mm 2 mps 744 mmHg 89%

    Day after tomorrow, 25 September, Wednesday

    Time Temperature Precipitation Wind Pressure Humidity
    00:00 -1°C° 0 mm 2 mps 744 mmHg 90%
    01:00 -1°C° 0 mm 2 mps 744 mmHg 91%
    02:00 -1°C° 0 mm 2 mps 744 mmHg 92%
    03:00 -1°C° 0 mm 2 mps 744 mmHg 92%
    04:00 -1°C° 0 mm 2 mps 744 mmHg 92%
    05:00 -1°C° 0 mm 2 mps 744 mmHg 91%
    06:00 -1°C° 0 mm 2 mps 744 mmHg 87%
    07:00 +1°C° 0 mm 2 mps 744 mmHg 83%
    08:00 +2°C° 0 mm 2 mps 744 mmHg 79%
    09:00 +3°C° 0 mm 2 mps 744 mmHg 73%
    10:00 +4°C° 0 mm 2 mps 745 mmHg 67%
    11:00 +6°C° 0 mm 2 mps 745 mmHg 60%
    12:00 +6°C° 0 mm 2 mps 745 mmHg 60%
    13:00 +6°C° 0 mm 2 mps 745 mmHg 60%
    14:00 +6°C° 0 mm 2 mps 745 mmHg 61%
    15:00 +5°C° 0 mm 2 mps 745 mmHg 66%
    16:00 +4°C° 0 mm 2 mps 744 mmHg 71%
    17:00 +4°C° 0 mm 1 mps 744 mmHg 76%
    18:00 +3°C° 0 mm 1 mps 744 mmHg 80%
    19:00 +2°C° 0 mm 1 mps 744 mmHg 85%
    20:00 +1°C° 0 mm 1 mps 745 mmHg 90%
    21:00 +1°C° 0 mm 1 mps 745 mmHg 90%
    22:00 +1°C° 0 mm 1 mps 745 mmHg 90%
    23:00 -2°C° 0 mm 2 mps 745 mmHg 91%

    26 September, Thursday

    Time Temperature Precipitation Wind Pressure Humidity
    00:00 -1°C° 0 mm 2 mps 745 mmHg 90%
    01:00 -1°C° 0 mm 2 mps 745 mmHg 89%
    02:00 -1°C° 0 mm 2 mps 745 mmHg 88%
    03:00 -1°C° 0 mm 2 mps 745 mmHg 89%
    04:00 -1°C° 0 mm 2 mps 745 mmHg 90%
    05:00 -1°C° 0 mm 2 mps 745 mmHg 91%
    06:00 0°C° 0 mm 3 mps 744 mmHg 84%
    07:00 +1°C° 0 mm 3 mps 744 mmHg 77%
    08:00 +2°C° 0 mm 3 mps 744 mmHg 70%
    09:00 +3°C° 0 mm 3 mps 744 mmHg 66%
    10:00 +5°C° 0 mm 4 mps 744 mmHg 61%
    11:00 +6°C° 0 mm 4 mps 744 mmHg 57%
    12:00 +6°C° 0 mm 4 mps 744 mmHg 58%
    13:00 +7°C° 0 mm 4 mps 744 mmHg 60%
    14:00 +7°C° 0 mm 4 mps 744 mmHg 61%
    15:00 +6°C° 0 mm 4 mps 744 mmHg 67%
    16:00 +5°C° 0 mm 3 mps 743 mmHg 73%
    17:00 +4°C° 0 mm 3 mps 743 mmHg 79%
    18:00 +4°C° 0 mm 3 mps 743 mmHg 83%
    19:00 +4°C° 0 mm 3 mps 743 mmHg 86%
    20:00 +4°C° 0 mm 4 mps 742 mmHg 90%
    21:00 +4°C° 0.2 mm 4 mps 742 mmHg 91%
    22:00 +4°C° 0.2 mm 4 mps 742 mmHg 92%
    23:00 +5°C° 0.2 mm 4 mps 742 mmHg 93%

    27 September, Friday

    Time Temperature Precipitation Wind Pressure Humidity
    00:00 +5°C° 0.3 mm 4 mps 742 mmHg 94%
    01:00 +5°C° 0.3 mm 4 mps 742 mmHg 95%
    02:00 +5°C° 0.3 mm 3 mps 742 mmHg 96%
    03:00 +5°C° 0.2 mm 3 mps 742 mmHg 96%
    04:00 +5°C° 0.2 mm 3 mps 742 mmHg 96%
    05:00 +5°C° 0.2 mm 3 mps 742 mmHg 97%
    06:00 +5°C° 0.3 mm 3 mps 742 mmHg 96%
    07:00 +5°C° 0.3 mm 3 mps 742 mmHg 95%
    08:00 +5°C° 0.3 mm 3 mps 742 mmHg 94%
    09:00 +7°C° 0.1 mm 3 mps 743 mmHg 89%
    10:00 +8°C° 0.1 mm 3 mps 743 mmHg 84%
    11:00 +9°C° 0.1 mm 3 mps 744 mmHg 79%
    12:00 +9°C° 0.1 mm 3 mps 744 mmHg 77%
    13:00 +9°C° 0.1 mm 3 mps 744 mmHg 75%
    14:00 +9°C° 0.1 mm 2 mps 744 mmHg 74%
    15:00 +8°C° 0 mm 2 mps 744 mmHg 77%
    16:00 +7°C° 0 mm 2 mps 744 mmHg 81%
    17:00 +6°C° 0 mm 2 mps 745 mmHg 85%
    18:00 +6°C° 0 mm 1 mps 745 mmHg 88%
    19:00 +5°C° 0 mm 1 mps 745 mmHg 90%
    20:00 +4°C° 0 mm 1 mps 745 mmHg 93%
    21:00 +4°C° 0 mm 1 mps 746 mmHg 92%
    22:00 +3°C° 0 mm 1 mps 746 mmHg 92%
    23:00 +2°C° 0 mm 0 mps 746 mmHg 92%

    28 September, Saturday

    Time Temperature Precipitation Wind Pressure Humidity
    00:00 +2°C° 0 mm 0 mps 746 mmHg 91%
    01:00 +2°C° 0 mm 0 mps 746 mmHg 90%
    02:00 +3°C° 0 mm 0 mps 746 mmHg 88%
    03:00 +3°C° 0 mm 0 mps 746 mmHg 88%
    04:00 +4°C° 0 mm 1 mps 746 mmHg 87%
    05:00 +5°C° 0 mm 1 mps 746 mmHg 86%
    06:00 +5°C° 0.1 mm 1 mps 746 mmHg 86%
    07:00 +6°C° 0.1 mm 1 mps 746 mmHg 86%
    08:00 +6°C° 0.1 mm 1 mps 746 mmHg 87%
    09:00 +7°C° 0.1 mm 1 mps 746 mmHg 84%
    10:00 +8°C° 0.1 mm 1 mps 747 mmHg 81%
    11:00 +8°C° 0.1 mm 2 mps 747 mmHg 78%
    12:00 +10°C° 0 mm 1 mps 747 mmHg 77%
    13:00 +10°C° 0 mm 1 mps 746 mmHg 75%
    14:00 +11°C° 0 mm 1 mps 746 mmHg 74%
    15:00 +10°C° 0 mm 1 mps 746 mmHg 79%
    16:00 +8°C° 0 mm 2 mps 746 mmHg 84%
    17:00 +7°C° 0 mm 2 mps 745 mmHg 90%
    18:00 +7°C° 0 mm 2 mps 745 mmHg 91%
    19:00 +7°C° 0 mm 2 mps 745 mmHg 92%
    20:00 +6°C° 0 mm 2 mps 745 mmHg 93%
    21:00 +5°C° 0 mm 3 mps 745 mmHg 93%
    22:00 +5°C° 0 mm 3 mps 745 mmHg 93%
    23:00 +5°C° 0 mm 3 mps 745 mmHg 93%
    Show more